Time,TemperatureF,DewpointF,PressureIn,WindDirection,WindDirectionDegrees,WindSpeedMPH,WindSpeedGustMPH,Humidity,HourlyPrecipIn,Conditions,Clouds,dailyrainin,SoftwareType,DateUTC
2013-03-05 00:01:00,19.8,7.4,30.36,NE,44,0.0,7.0,58,0.00,,SKC,0.08,VWS V14.00,2013-03-05 07:01:00,
2013-03-05 00:07:00,19.6,6.8,30.36,NNE,27,4.0,4.0,57,0.00,,SKC,0.00,VWS V14.00,2013-03-05 07:07:00,
2013-03-05 00:12:00,19.7,6.2,30.36,NE,34,6.0,6.0,55,0.00,,SKC,0.00,VWS V14.00,2013-03-05 07:12:00,
2013-03-05 00:17:00,19.8,6.3,30.36,NE,42,6.0,7.0,55,0.00,,SKC,0.00,VWS V14.00,2013-03-05 07:17:00,
2013-03-05 00:22:00,19.7,6.6,30.36,ENE,58,0.0,7.0,56,0.00,,SKC,0.00,VWS V14.00,2013-03-05 07:22:00,
2013-03-05 00:27:00,19.4,6.7,30.36,NNE,32,2.0,7.0,57,0.00,,SKC,0.00,VWS V14.00,2013-03-05 07:27:00,
2013-03-05 00:32:00,19.4,6.3,30.36,NNE,19,9.0,10.0,56,0.00,,SKC,0.00,VWS V14.00,2013-03-05 07:32:00,
2013-03-05 00:38:00,19.4,6.7,30.37,NE,51,6.0,10.0,57,0.00,,SKC,0.00,VWS V14.00,2013-03-05 07:38:00,
2013-03-05 00:43:00,19.0,6.7,30.37,ENE,63,2.0,10.0,58,0.00,,SKC,0.00,VWS V14.00,2013-03-05 07:43:00,
2013-03-05 00:48:00,18.7,6.8,30.37,NE,35,3.0,10.0,59,0.00,,SKC,0.00,VWS V14.00,2013-03-05 07:48:00,
2013-03-05 00:53:00,18.6,6.7,30.37,North,355,5.0,10.0,59,0.00,,SKC,0.00,VWS V14.00,2013-03-05 07:53:00,
2013-03-05 00:58:00,18.6,6.3,30.38,NNE,19,3.0,10.0,58,0.00,,SKC,0.00,VWS V14.00,2013-03-05 07:58:00,
2013-03-05 01:04:00,18.7,6.4,30.38,ENE,59,2.0,4.0,58,0.00,,SKC,0.00,VWS V14.00,2013-03-05 08:04:00,
2013-03-05 01:09:00,18.6,6.3,30.38,NE,44,1.0,5.0,58,0.00,,SKC,0.00,VWS V14.00,2013-03-05 08:09:00,
2013-03-05 01:14:00,18.6,6.7,30.38,NNE,32,2.0,5.0,59,0.00,,SKC,0.00,VWS V14.00,2013-03-05 08:14:00,
2013-03-05 01:19:00,18.4,6.8,30.39,NNE,31,0.0,5.0,60,0.00,,SKC,0.00,VWS V14.00,2013-03-05 08:19:00,
2013-03-05 01:25:00,17.9,7.1,30.39,NNE,31,1.0,5.0,62,0.00,,SKC,0.00,VWS V14.00,2013-03-05 08:25:00,
2013-03-05 01:30:00,17.5,7.1,30.39,ENE,76,2.0,5.0,63,0.00,,SKC,0.00,VWS V14.00,2013-03-05 08:30:00,
2013-03-05 01:35:00,17.4,7.3,30.39,ENE,57,1.0,3.0,64,0.00,,SKC,0.00,VWS V14.00,2013-03-05 08:35:00,
2013-03-05 01:40:00,17.2,6.4,30.39,NE,56,1.0,4.0,62,0.00,,SKC,0.00,VWS V14.00,2013-03-05 08:40:00,
2013-03-05 01:45:00,17.5,6.4,30.39,NE,48,0.0,4.0,61,0.00,,SKC,0.00,VWS V14.00,2013-03-05 08:45:00,
2013-03-05 01:50:00,17.6,6.8,30.39,NE,51,3.0,6.0,62,0.00,,SKC,0.00,VWS V14.00,2013-03-05 08:50:00,
2013-03-05 01:56:00,17.7,5.8,30.39,NNE,24,1.0,6.0,59,0.00,,SKC,0.00,VWS V14.00,2013-03-05 08:56:00,
2013-03-05 02:01:00,17.8,6.3,30.40,ENE,69,3.0,6.0,60,0.00,,SKC,0.00,VWS V14.00,2013-03-05 09:01:00,
2013-03-05 02:06:00,17.8,7.0,30.40,ENE,66,3.0,5.0,62,0.00,,SKC,0.00,VWS V14.00,2013-03-05 09:06:00,
2013-03-05 02:11:00,17.5,6.7,30.41,ENE,68,2.0,5.0,62,0.00,,SKC,0.00,VWS V14.00,2013-03-05 09:11:00,
2013-03-05 02:16:00,17.2,7.1,30.40,East,83,0.0,5.0,64,0.00,,SKC,0.00,VWS V14.00,2013-03-05 09:16:00,
2013-03-05 02:22:00,16.9,6.8,30.40,ENE,71,2.0,5.0,64,0.00,,SKC,0.00,VWS V14.00,2013-03-05 09:22:00,
2013-03-05 02:27:00,16.7,6.7,30.41,ENE,72,2.0,5.0,64,0.00,,SKC,0.00,VWS V14.00,2013-03-05 09:27:00,
2013-03-05 02:32:00,16.6,6.9,30.41,ESE,102,0.0,5.0,65,0.00,,SKC,0.00,VWS V14.00,2013-03-05 09:32:00,
2013-03-05 02:37:00,16.4,6.7,30.41,NE,42,1.0,4.0,65,0.00,,SKC,0.00,VWS V14.00,2013-03-05 09:37:00,
2013-03-05 02:42:00,16.4,6.4,30.41,NE,43,1.0,4.0,64,0.00,,SKC,0.00,VWS V14.00,2013-03-05 09:42:00,
2013-03-05 02:48:00,16.4,6.4,30.41,NE,43,1.0,4.0,64,0.00,,SKC,0.00,VWS V14.00,2013-03-05 09:48:00,
2013-03-05 02:53:00,16.5,6.8,30.42,ENE,57,2.0,4.0,65,0.00,,SKC,0.00,VWS V14.00,2013-03-05 09:53:00,
2013-03-05 02:58:00,16.3,6.3,30.42,ENE,57,0.0,4.0,64,0.00,,SKC,0.00,VWS V14.00,2013-03-05 09:58:00,
2013-03-05 03:03:00,16.1,6.4,30.41,ESE,123,5.0,5.0,65,0.00,,SKC,0.00,VWS V14.00,2013-03-05 10:03:00,
2013-03-05 03:09:00,16.0,6.7,30.42,NE,42,2.0,5.0,66,0.00,,SKC,0.00,VWS V14.00,2013-03-05 10:09:00,
2013-03-05 03:14:00,15.9,7.2,30.42,NE,42,2.0,5.0,68,0.00,,SKC,0.00,VWS V14.00,2013-03-05 10:14:00,
2013-03-05 03:19:00,16.0,7.0,30.42,NE,53,2.0,5.0,67,0.00,,SKC,0.00,VWS V14.00,2013-03-05 10:19:00,
2013-03-05 03:24:00,16.3,6.9,30.42,NE,53,0.0,5.0,66,0.00,,SKC,0.00,VWS V14.00,2013-03-05 10:24:00,
2013-03-05 03:29:00,16.2,7.2,30.42,East,87,0.0,5.0,67,0.00,,SKC,0.00,VWS V14.00,2013-03-05 10:29:00,
2013-03-05 03:35:00,15.8,8.1,30.43,East,87,0.0,2.0,71,0.00,,SKC,0.00,VWS V14.00,2013-03-05 10:35:00,
2013-03-05 03:40:00,15.3,7.0,30.43,East,87,1.0,3.0,69,0.00,,SKC,0.00,VWS V14.00,2013-03-05 10:40:00,
2013-03-05 03:45:00,14.9,7.2,30.43,East,87,0.0,3.0,71,0.00,,SKC,0.00,VWS V14.00,2013-03-05 10:45:00,
2013-03-05 03:50:00,14.6,7.2,30.43,East,87,2.0,3.0,72,0.00,,SKC,0.00,VWS V14.00,2013-03-05 10:50:00,
2013-03-05 03:56:00,14.4,6.7,30.43,East,87,0.0,3.0,71,0.00,,SKC,0.00,VWS V14.00,2013-03-05 10:56:00,
2013-03-05 04:01:00,14.5,6.5,30.43,East,87,0.0,3.0,70,0.00,,SKC,0.00,VWS V14.00,2013-03-05 11:01:00,
2013-03-05 04:06:00,14.4,7.0,30.43,East,87,0.0,0.0,72,0.00,,SKC,0.00,VWS V14.00,2013-03-05 11:06:00,
2013-03-05 04:11:00,13.9,6.6,30.44,East,87,0.0,2.0,72,0.00,,SKC,0.00,VWS V14.00,2013-03-05 11:11:00,
2013-03-05 04:17:00,13.5,6.5,30.45,East,87,0.0,3.0,73,0.00,,SKC,0.00,VWS V14.00,2013-03-05 11:17:00,
2013-03-05 04:22:00,13.1,6.4,30.45,East,87,0.0,3.0,74,0.00,,SKC,0.00,VWS V14.00,2013-03-05 11:22:00,
2013-03-05 04:27:00,13.1,6.1,30.45,NNE,22,0.0,5.0,73,0.00,,SKC,0.00,VWS V14.00,2013-03-05 11:27:00,
2013-03-05 04:32:00,13.2,6.5,30.45,NNE,22,0.0,0.0,74,0.00,,SKC,0.00,VWS V14.00,2013-03-05 11:32:00,
2013-03-05 04:37:00,13.0,6.3,30.45,NNE,22,0.0,1.0,74,0.00,,SKC,0.00,VWS V14.00,2013-03-05 11:37:00,
2013-03-05 04:43:00,12.9,6.2,30.45,NNE,24,1.0,1.0,74,0.00,,SKC,0.00,VWS V14.00,2013-03-05 11:43:00,
2013-03-05 04:48:00,13.0,6.3,30.45,NNE,24,0.0,1.0,74,0.00,,SKC,0.00,VWS V14.00,2013-03-05 11:48:00,
2013-03-05 04:53:00,13.0,6.3,30.45,NNE,24,0.0,1.0,74,0.00,,SKC,0.00,VWS V14.00,2013-03-05 11:53:00,
2013-03-05 04:58:00,12.9,6.2,30.46,NNE,24,0.0,1.0,74,0.00,,SKC,0.00,VWS V14.00,2013-03-05 11:58:00,
2013-03-05 05:04:00,12.7,6.0,30.46,NNE,24,0.0,0.0,74,0.00,,SKC,0.00,VWS V14.00,2013-03-05 12:04:00,
2013-03-05 05:09:00,12.6,5.9,30.47,NNE,24,0.0,0.0,74,0.00,,SKC,0.00,VWS V14.00,2013-03-05 12:09:00,
2013-03-05 05:15:00,12.5,6.1,30.47,NNE,24,0.0,0.0,75,0.00,,SKC,0.00,VWS V14.00,2013-03-05 12:15:00,
2013-03-05 05:20:00,12.5,6.4,30.48,NNE,24,0.0,0.0,76,0.00,,SKC,0.00,VWS V14.00,2013-03-05 12:20:00,
2013-03-05 05:25:00,12.3,5.9,30.49,NNE,24,0.0,0.0,75,0.00,,SKC,0.00,VWS V14.00,2013-03-05 12:25:00,
2013-03-05 05:30:00,12.0,5.9,30.49,NNE,24,0.0,2.0,76,0.00,,SKC,0.00,VWS V14.00,2013-03-05 12:30:00,
2013-03-05 05:36:00,11.7,5.9,30.49,NNE,24,0.0,1.0,77,0.00,,SKC,0.00,VWS V14.00,2013-03-05 12:36:00,
2013-03-05 05:41:00,11.5,6.0,30.49,NNE,24,0.0,1.0,78,0.00,,SKC,0.00,VWS V14.00,2013-03-05 12:41:00,
2013-03-05 05:46:00,11.3,5.8,30.49,NNE,24,0.0,2.0,78,0.00,,SKC,0.00,VWS V14.00,2013-03-05 12:46:00,
2013-03-05 05:51:00,11.2,6.0,30.49,NNE,24,3.0,3.0,79,0.00,,SKC,0.00,VWS V14.00,2013-03-05 12:51:00,
2013-03-05 05:56:00,11.0,5.5,30.50,NNE,24,0.0,3.0,78,0.00,,SKC,0.00,VWS V14.00,2013-03-05 12:56:00,
2013-03-05 06:02:00,10.7,5.2,30.50,NNE,24,0.0,3.0,78,0.00,,SKC,0.00,VWS V14.00,2013-03-05 13:02:00,
2013-03-05 06:07:00,10.6,5.4,30.50,NNE,24,0.0,0.0,79,0.00,,SKC,0.00,VWS V14.00,2013-03-05 13:07:00,
2013-03-05 06:12:00,10.5,5.8,30.50,NNE,24,0.0,0.0,81,0.00,,SKC,0.00,VWS V14.00,2013-03-05 13:12:00,
2013-03-05 06:17:00,10.5,5.6,30.50,NNE,24,0.0,0.0,80,0.00,,SKC,0.00,VWS V14.00,2013-03-05 13:17:00,
2013-03-05 06:23:00,10.4,5.5,30.50,NNE,24,0.0,2.0,80,0.00,,SKC,0.00,VWS V14.00,2013-03-05 13:23:00,
2013-03-05 06:28:00,10.4,5.7,30.50,NNE,24,0.0,2.0,81,0.00,,SKC,0.00,VWS V14.00,2013-03-05 13:28:00,
2013-03-05 06:33:00,10.4,5.7,30.50,NNE,24,0.0,0.0,81,0.00,,SKC,0.00,VWS V14.00,2013-03-05 13:33:00,
2013-03-05 06:38:00,10.5,5.8,30.50,NNE,24,0.0,1.0,81,0.00,,SKC,0.00,VWS V14.00,2013-03-05 13:38:00,
2013-03-05 06:43:00,10.4,5.7,30.51,NNE,24,0.0,1.0,81,0.00,,SKC,0.00,VWS V14.00,2013-03-05 13:43:00,
2013-03-05 06:49:00,10.3,5.4,30.51,NNE,24,0.0,1.0,80,0.00,,SKC,0.00,VWS V14.00,2013-03-05 13:49:00,
2013-03-05 06:54:00,10.1,5.4,30.51,NNE,24,0.0,1.0,81,0.00,,SKC,0.00,VWS V14.00,2013-03-05 13:54:00,
2013-03-05 06:59:00,9.9,5.2,30.51,NNE,24,0.0,1.0,81,0.00,,SKC,0.00,VWS V14.00,2013-03-05 13:59:00,
2013-03-05 07:04:00,9.9,5.2,30.51,NNE,24,1.0,1.0,81,0.00,,SKC,0.00,VWS V14.00,2013-03-05 14:04:00,
2013-03-05 07:09:00,9.7,4.8,30.51,NNE,24,2.0,3.0,80,0.00,,SKC,0.00,VWS V14.00,2013-03-05 14:09:00,
2013-03-05 07:15:00,9.4,5.0,30.51,NNE,24,0.0,3.0,82,0.00,,SKC,0.00,VWS V14.00,2013-03-05 14:15:00,
2013-03-05 07:20:00,9.3,4.9,30.51,NNE,24,0.0,3.0,82,0.00,,SKC,0.00,VWS V14.00,2013-03-05 14:20:00,
2013-03-05 07:25:00,9.5,5.1,30.51,NNE,24,0.0,3.0,82,0.00,,SKC,0.00,VWS V14.00,2013-03-05 14:25:00,
2013-03-05 07:30:00,9.7,5.6,30.51,NNE,24,0.0,3.0,83,0.00,,SKC,0.00,VWS V14.00,2013-03-05 14:30:00,
2013-03-05 07:35:00,9.9,5.8,30.51,NNE,24,0.0,0.0,83,0.00,,SKC,0.00,VWS V14.00,2013-03-05 14:35:00,
2013-03-05 07:41:00,9.9,5.2,30.51,NNE,24,0.0,1.0,81,0.00,,SKC,0.00,VWS V14.00,2013-03-05 14:41:00,
2013-03-05 07:46:00,10.1,5.7,30.51,NNE,24,0.0,1.0,82,0.00,,SKC,0.00,VWS V14.00,2013-03-05 14:46:00,
2013-03-05 07:51:00,10.5,6.1,30.51,NNE,24,0.0,1.0,82,0.00,,SKC,0.00,VWS V14.00,2013-03-05 14:51:00,
2013-03-05 07:56:00,11.0,6.6,30.52,NNE,24,0.0,2.0,82,0.00,,SKC,0.00,VWS V14.00,2013-03-05 14:56:00,
2013-03-05 08:01:00,11.0,6.3,30.52,NNE,24,0.0,2.0,81,0.00,,SKC,0.00,VWS V14.00,2013-03-05 15:01:00,
2013-03-05 08:07:00,11.0,6.3,30.52,NNE,24,0.0,0.0,81,0.00,,SKC,0.00,VWS V14.00,2013-03-05 15:07:00,
2013-03-05 08:12:00,11.0,6.3,30.52,NNE,24,0.0,0.0,81,0.00,,SKC,0.00,VWS V14.00,2013-03-05 15:12:00,
2013-03-05 08:17:00,11.4,7.2,30.53,NNE,24,0.0,1.0,83,0.00,,SKC,0.00,VWS V14.00,2013-03-05 15:17:00,
2013-03-05 08:22:00,11.8,7.4,30.53,NNE,24,1.0,1.0,82,0.00,,SKC,0.00,VWS V14.00,2013-03-05 15:22:00,
2013-03-05 08:28:00,12.4,7.7,30.53,NNE,24,0.0,1.0,81,0.00,,SKC,0.00,VWS V14.00,2013-03-05 15:28:00,
2013-03-05 08:33:00,12.7,7.7,30.53,NNE,24,0.0,0.0,80,0.00,,SKC,0.00,VWS V14.00,2013-03-05 15:33:00,
2013-03-05 08:38:00,13.1,7.5,30.54,NNE,24,0.0,0.0,78,0.00,,SKC,0.00,VWS V14.00,2013-03-05 15:38:00,
2013-03-05 08:43:00,13.4,7.3,30.53,NNE,24,0.0,0.0,76,0.00,,SKC,0.00,VWS V14.00,2013-03-05 15:43:00,
2013-03-05 08:48:00,13.9,7.2,30.53,NNE,24,0.0,0.0,74,0.00,,SKC,0.00,VWS V14.00,2013-03-05 15:48:00,
2013-03-05 08:54:00,14.3,7.2,30.53,NNE,24,0.0,0.0,73,0.00,,SKC,0.00,VWS V14.00,2013-03-05 15:54:00,
2013-03-05 08:59:00,14.9,6.9,30.53,NNE,24,0.0,0.0,70,0.00,,SKC,0.00,VWS V14.00,2013-03-05 15:59:00,
2013-03-05 09:04:00,15.8,7.4,30.53,NNE,24,0.0,0.0,69,0.00,,SKC,0.00,VWS V14.00,2013-03-05 16:04:00,
2013-03-05 09:09:00,17.1,8.1,30.53,NNE,24,0.0,2.0,67,0.00,,SKC,0.00,VWS V14.00,2013-03-05 16:09:00,
2013-03-05 09:15:00,18.5,7.3,30.52,NNE,24,0.0,2.0,61,0.00,,SKC,0.00,VWS V14.00,2013-03-05 16:15:00,
2013-03-05 09:20:00,19.8,7.0,30.52,ENE,59,0.0,2.0,57,0.00,,SKC,0.00,VWS V14.00,2013-03-05 16:20:00,
2013-03-05 09:25:00,20.8,8.0,30.52,SE,124,2.0,5.0,57,0.00,,SKC,0.00,VWS V14.00,2013-03-05 16:25:00,
2013-03-05 09:30:00,21.6,8.3,30.52,SE,124,2.0,5.0,56,0.00,,SKC,0.00,VWS V14.00,2013-03-05 16:30:00,
2013-03-05 09:35:00,22.4,8.3,30.52,South,180,3.0,5.0,54,0.00,,SKC,0.00,VWS V14.00,2013-03-05 16:35:00,
2013-03-05 09:41:00,22.9,8.3,30.52,SSE,162,4.0,5.0,53,0.00,,SKC,0.00,VWS V14.00,2013-03-05 16:41:00,
2013-03-05 09:46:00,23.4,8.4,30.52,SSE,162,0.0,5.0,52,0.00,,SKC,0.00,VWS V14.00,2013-03-05 16:46:00,
2013-03-05 09:51:00,24.2,8.7,30.52,SSE,162,1.0,5.0,51,0.00,,SKC,0.00,VWS V14.00,2013-03-05 16:51:00,
2013-03-05 09:56:00,24.9,8.9,30.52,SSE,162,0.0,5.0,50,0.00,,SKC,0.00,VWS V14.00,2013-03-05 16:56:00,
2013-03-05 10:01:00,25.7,9.2,30.52,SSE,162,0.0,5.0,49,0.00,,SKC,0.00,VWS V14.00,2013-03-05 17:01:00,
2013-03-05 10:07:00,26.4,9.4,30.52,SSE,162,2.0,2.0,48,0.00,,SKC,0.00,VWS V14.00,2013-03-05 17:07:00,
2013-03-05 10:12:00,27.1,9.1,30.51,SSE,162,0.0,2.0,46,0.00,,SKC,0.00,VWS V14.00,2013-03-05 17:12:00,
2013-03-05 10:17:00,27.6,9.5,30.51,SSE,162,2.0,2.0,46,0.00,,SKC,0.00,VWS V14.00,2013-03-05 17:17:00,
2013-03-05 10:22:00,28.1,10.0,30.51,SSE,162,0.0,2.0,46,0.00,,SKC,0.00,VWS V14.00,2013-03-05 17:22:00,
2013-03-05 10:27:00,28.6,10.0,30.50,SSE,162,0.0,4.0,45,0.00,,SKC,0.00,VWS V14.00,2013-03-05 17:27:00,
2013-03-05 10:33:00,29.3,11.1,30.50,SSE,162,4.0,4.0,46,0.00,,SKC,0.00,VWS V14.00,2013-03-05 17:33:00,
2013-03-05 10:38:00,29.7,10.5,30.50,SSE,167,4.0,4.0,44,0.00,,SKC,0.00,VWS V14.00,2013-03-05 17:38:00,
2013-03-05 10:43:00,30.0,11.2,30.50,South,178,1.0,5.0,45,0.00,,SKC,0.00,VWS V14.00,2013-03-05 17:43:00,
2013-03-05 10:48:00,30.4,11.6,30.49,SSW,210,3.0,6.0,45,0.00,,SKC,0.00,VWS V14.00,2013-03-05 17:48:00,
2013-03-05 10:54:00,30.8,11.5,30.49,SW,219,0.0,6.0,44,0.00,,SKC,0.00,VWS V14.00,2013-03-05 17:54:00,
2013-03-05 10:59:00,31.1,10.7,30.49,SSW,197,3.0,6.0,42,0.00,,SKC,0.00,VWS V14.00,2013-03-05 17:59:00,
2013-03-05 11:04:00,31.4,12.0,30.49,SW,217,3.0,4.0,44,0.00,,SKC,0.00,VWS V14.00,2013-03-05 18:04:00,
2013-03-05 11:09:00,31.8,11.9,30.49,SW,228,4.0,5.0,43,0.00,,SKC,0.00,VWS V14.00,2013-03-05 18:09:00,
2013-03-05 11:14:00,32.1,12.7,30.49,SSW,202,2.0,8.0,44,0.00,,SKC,0.00,VWS V14.00,2013-03-05 18:14:00,
2013-03-05 11:20:00,32.5,12.5,30.48,SW,218,2.0,8.0,43,0.00,,SKC,0.00,VWS V14.00,2013-03-05 18:20:00,
2013-03-05 11:25:00,32.6,13.1,30.48,SSW,207,0.0,8.0,44,0.00,,SKC,0.00,VWS V14.00,2013-03-05 18:25:00,
2013-03-05 11:30:00,33.0,14.0,30.48,SW,219,5.0,8.0,45,0.00,,SKC,0.00,VWS V14.00,2013-03-05 18:30:00,
2013-03-05 11:35:00,33.3,13.2,30.48,SSW,200,2.0,6.0,43,0.00,,SKC,0.00,VWS V14.00,2013-03-05 18:35:00,
2013-03-05 11:41:00,33.7,14.1,30.47,SW,216,2.0,6.0,44,0.00,,SKC,0.00,VWS V14.00,2013-03-05 18:41:00,
2013-03-05 11:46:00,33.9,13.2,30.47,SW,226,1.0,6.0,42,0.00,,SKC,0.00,VWS V14.00,2013-03-05 18:46:00,
2013-03-05 11:51:00,34.3,13.1,30.47,SSW,213,2.0,6.0,41,0.00,,SKC,0.00,VWS V14.00,2013-03-05 18:51:00,
2013-03-05 11:56:00,34.6,13.3,30.47,SW,219,4.0,6.0,41,0.00,,SKC,0.00,VWS V14.00,2013-03-05 18:56:00,
2013-03-05 12:01:00,34.9,14.1,30.46,SSW,210,2.0,6.0,42,0.00,,SKC,0.00,VWS V14.00,2013-03-05 19:01:00,
2013-03-05 12:07:00,35.4,12.9,30.46,South,188,1.0,5.0,39,0.00,,SKC,0.00,VWS V14.00,2013-03-05 19:07:00,
2013-03-05 12:12:00,35.7,14.3,30.46,SW,216,4.0,6.0,41,0.00,,SKC,0.00,VWS V14.00,2013-03-05 19:12:00,
2013-03-05 12:17:00,36.1,14.1,30.45,SSW,207,2.0,6.0,40,0.00,,SKC,0.00,VWS V14.00,2013-03-05 19:17:00,
2013-03-05 12:22:00,36.6,14.0,30.44,SW,217,1.0,6.0,39,0.00,,SKC,0.00,VWS V14.00,2013-03-05 19:22:00,
2013-03-05 12:28:00,37.0,14.4,30.44,SSW,198,0.0,6.0,39,0.00,,SKC,0.00,VWS V14.00,2013-03-05 19:28:00,
2013-03-05 12:33:00,37.8,15.1,30.44,SW,231,0.0,3.0,39,0.00,,SKC,0.00,VWS V14.00,2013-03-05 19:33:00,
2013-03-05 12:38:00,38.1,14.1,30.44,SW,214,3.0,7.0,37,0.00,,SKC,0.00,VWS V14.00,2013-03-05 19:38:00,
2013-03-05 12:43:00,38.3,14.9,30.43,SW,219,4.0,7.0,38,0.00,,SKC,0.00,VWS V14.00,2013-03-05 19:43:00,
2013-03-05 12:48:00,38.7,13.4,30.43,SW,223,3.0,7.0,35,0.00,,SKC,0.00,VWS V14.00,2013-03-05 19:48:00,
2013-03-05 12:54:00,39.2,15.1,30.43,SW,219,4.0,7.0,37,0.00,,SKC,0.00,VWS V14.00,2013-03-05 19:54:00,
2013-03-05 12:59:00,39.5,14.8,30.42,SSW,197,3.0,7.0,36,0.00,,SKC,0.00,VWS V14.00,2013-03-05 19:59:00,
2013-03-05 13:04:00,39.7,13.6,30.42,SSW,198,3.0,5.0,34,0.00,,SKC,0.00,VWS V14.00,2013-03-05 20:04:00,
2013-03-05 13:09:00,40.2,15.4,30.41,SSW,199,2.0,5.0,36,0.00,,SKC,0.00,VWS V14.00,2013-03-05 20:09:00,
2013-03-05 13:15:00,40.7,14.5,30.41,SSW,207,3.0,7.0,34,0.00,,SKC,0.00,VWS V14.00,2013-03-05 20:15:00,
2013-03-05 13:20:00,41.0,14.1,30.41,SSW,207,3.0,7.0,33,0.00,,SKC,0.00,VWS V14.00,2013-03-05 20:20:00,
2013-03-05 13:25:00,41.3,13.7,30.40,SSW,209,4.0,7.0,32,0.00,,SKC,0.00,VWS V14.00,2013-03-05 20:25:00,
2013-03-05 13:30:00,41.5,13.1,30.40,SSW,200,3.0,7.0,31,0.00,,SKC,0.00,VWS V14.00,2013-03-05 20:30:00,
2013-03-05 13:35:00,41.8,13.4,30.40,SSW,200,4.0,5.0,31,0.00,,SKC,0.00,VWS V14.00,2013-03-05 20:35:00,
2013-03-05 13:41:00,42.1,12.9,30.40,SW,216,3.0,7.0,30,0.00,,SKC,0.00,VWS V14.00,2013-03-05 20:41:00,
2013-03-05 13:46:00,42.3,13.1,30.39,SSW,204,5.0,7.0,30,0.00,,SKC,0.00,VWS V14.00,2013-03-05 20:46:00,
2013-03-05 13:51:00,42.8,15.0,30.39,SW,218,0.0,7.0,32,0.00,,SKC,0.00,VWS V14.00,2013-03-05 20:51:00,
2013-03-05 13:56:00,43.7,14.3,30.39,SW,218,1.0,7.0,30,0.00,,SKC,0.00,VWS V14.00,2013-03-05 20:56:00,
2013-03-05 14:02:00,44.1,12.3,30.38,SSW,209,2.0,7.0,27,0.00,,SKC,0.00,VWS V14.00,2013-03-05 21:02:00,
2013-03-05 14:07:00,44.4,14.1,30.38,SSW,205,1.0,5.0,29,0.00,,SKC,0.00,VWS V14.00,2013-03-05 21:07:00,
2013-03-05 14:12:00,44.6,12.7,30.38,SSW,211,3.0,6.0,27,0.00,,SKC,0.00,VWS V14.00,2013-03-05 21:12:00,
2013-03-05 14:17:00,44.6,11.0,30.37,SW,219,4.0,6.0,25,0.00,,SKC,0.00,VWS V14.00,2013-03-05 21:17:00,
2013-03-05 14:22:00,44.7,12.8,30.37,SSW,196,4.0,6.0,27,0.00,,SKC,0.00,VWS V14.00,2013-03-05 21:22:00,
2013-03-05 14:28:00,45.1,11.4,30.37,South,191,1.0,6.0,25,0.00,,SKC,0.00,VWS V14.00,2013-03-05 21:28:00,
2013-03-05 14:33:00,45.8,9.1,30.37,South,191,2.0,4.0,22,0.00,,SKC,0.00,VWS V14.00,2013-03-05 21:33:00,
2013-03-05 14:38:00,46.2,10.5,30.36,South,191,0.0,4.0,23,0.00,,SKC,0.00,VWS V14.00,2013-03-05 21:38:00,
2013-03-05 14:43:00,46.8,6.7,30.36,South,191,3.0,4.0,19,0.00,,SKC,0.00,VWS V14.00,2013-03-05 21:43:00,
2013-03-05 14:49:00,47.3,8.3,30.36,South,191,1.0,4.0,20,0.00,,SKC,0.00,VWS V14.00,2013-03-05 21:49:00,
2013-03-05 14:54:00,47.7,9.7,30.36,South,191,3.0,4.0,21,0.00,,SKC,0.00,VWS V14.00,2013-03-05 21:54:00,
2013-03-05 14:59:00,47.9,5.2,30.35,SSW,192,0.0,5.0,17,0.00,,SKC,0.00,VWS V14.00,2013-03-05 21:59:00,
2013-03-05 15:04:00,48.5,4.4,30.35,SSW,192,2.0,4.0,16,0.00,,SKC,0.00,VWS V14.00,2013-03-05 22:04:00,
2013-03-05 15:10:00,49.0,4.8,30.35,South,191,0.0,4.0,16,0.00,,SKC,0.00,VWS V14.00,2013-03-05 22:10:00,
2013-03-05 15:15:00,49.0,4.8,30.35,South,187,1.0,4.0,16,0.00,,SKC,0.00,VWS V14.00,2013-03-05 22:15:00,
2013-03-05 15:20:00,48.9,3.3,30.35,South,190,4.0,4.0,15,0.00,,SKC,0.00,VWS V14.00,2013-03-05 22:20:00,
2013-03-05 15:25:00,48.8,3.2,30.34,South,190,2.0,4.0,15,0.00,,SKC,0.00,VWS V14.00,2013-03-05 22:25:00,
2013-03-05 15:31:00,48.7,1.6,30.34,SW,221,2.0,5.0,14,0.00,,SKC,0.00,VWS V14.00,2013-03-05 22:31:00,
2013-03-05 15:36:00,48.5,-0.1,30.34,South,188,3.0,5.0,13,0.00,,SKC,0.00,VWS V14.00,2013-03-05 22:36:00,
2013-03-05 15:41:00,48.9,3.3,30.34,SSW,202,5.0,5.0,15,0.00,,SKC,0.00,VWS V14.00,2013-03-05 22:41:00,
2013-03-05 15:46:00,49.1,3.5,30.33,SSW,192,4.0,6.0,15,0.00,,SKC,0.00,VWS V14.00,2013-03-05 22:46:00,
2013-03-05 15:52:00,48.8,0.2,30.33,South,171,0.0,7.0,13,0.00,,SKC,0.00,VWS V14.00,2013-03-05 22:52:00,
2013-03-05 15:57:00,48.8,4.6,30.33,SSW,207,2.0,7.0,16,0.00,,SKC,0.00,VWS V14.00,2013-03-05 22:57:00,
2013-03-05 16:02:00,48.8,3.2,30.33,SSW,202,0.0,7.0,15,0.00,,SKC,0.00,VWS V14.00,2013-03-05 23:02:00,
2013-03-05 16:07:00,49.3,0.6,30.33,SSW,202,2.0,4.0,13,0.00,,SKC,0.00,VWS V14.00,2013-03-05 23:07:00,
2013-03-05 16:12:00,49.5,2.3,30.32,SSW,200,2.0,4.0,14,0.00,,SKC,0.00,VWS V14.00,2013-03-05 23:12:00,
2013-03-05 16:18:00,49.5,2.3,30.32,SSW,200,1.0,4.0,14,0.00,,SKC,0.00,VWS V14.00,2013-03-05 23:18:00,
2013-03-05 16:23:00,49.4,5.1,30.32,SSW,200,0.0,4.0,16,0.00,,SKC,0.00,VWS V14.00,2013-03-05 23:23:00,
2013-03-05 16:28:00,49.6,6.6,30.32,SSW,200,1.0,4.0,17,0.00,,SKC,0.00,VWS V14.00,2013-03-05 23:28:00,
2013-03-05 16:33:00,49.6,6.6,30.32,SSW,200,2.0,3.0,17,0.00,,SKC,0.00,VWS V14.00,2013-03-05 23:33:00,
2013-03-05 16:38:00,49.6,5.3,30.32,SSW,200,1.0,3.0,16,0.00,,SKC,0.00,VWS V14.00,2013-03-05 23:38:00,
2013-03-05 16:44:00,49.9,9.3,30.32,SSW,200,0.0,3.0,19,0.00,,SKC,0.00,VWS V14.00,2013-03-05 23:44:00,
2013-03-05 16:49:00,49.3,13.1,30.31,SSW,200,0.0,3.0,23,0.00,,SKC,0.00,VWS V14.00,2013-03-05 23:49:00,
2013-03-05 16:54:00,48.0,12.9,30.31,SSW,200,0.0,3.0,24,0.00,,SKC,0.00,VWS V14.00,2013-03-05 23:54:00,
2013-03-05 16:59:00,46.9,13.8,30.31,SSW,200,0.0,3.0,26,0.00,,SKC,0.00,VWS V14.00,2013-03-05 23:59:00,
2013-03-05 17:04:00,45.8,12.9,30.31,SSW,200,1.0,1.0,26,0.00,,SKC,0.00,VWS V14.00,2013-03-06 00:04:00,
2013-03-05 17:10:00,44.1,14.7,30.31,SSW,200,1.0,2.0,30,0.00,,SKC,0.00,VWS V14.00,2013-03-06 00:10:00,
2013-03-05 17:15:00,42.0,17.0,30.31,SSW,200,2.0,3.0,36,0.00,,SKC,0.00,VWS V14.00,2013-03-06 00:15:00,
2013-03-05 17:20:00,40.3,16.7,30.31,SSW,200,2.0,3.0,38,0.00,,SKC,0.00,VWS V14.00,2013-03-06 00:20:00,
2013-03-05 17:25:00,38.9,16.1,30.31,SSW,200,2.0,4.0,39,0.00,,SKC,0.00,VWS V14.00,2013-03-06 00:25:00,
2013-03-05 17:30:00,37.8,16.8,30.31,SSW,200,0.0,4.0,42,0.00,,SKC,0.00,VWS V14.00,2013-03-06 00:30:00,
2013-03-05 17:36:00,36.8,17.5,30.31,SSW,200,0.0,1.0,45,0.00,,SKC,0.00,VWS V14.00,2013-03-06 00:36:00,
2013-03-05 17:41:00,36.0,17.2,30.31,SSW,200,0.0,2.0,46,0.00,,SKC,0.00,VWS V14.00,2013-03-06 00:41:00,
2013-03-05 17:46:00,35.3,17.6,30.30,SSW,200,1.0,2.0,48,0.00,,SKC,0.00,VWS V14.00,2013-03-06 00:46:00,
2013-03-05 17:51:00,34.8,17.1,30.30,SSW,200,2.0,2.0,48,0.00,,SKC,0.00,VWS V14.00,2013-03-06 00:51:00,
2013-03-05 17:56:00,34.3,16.7,30.30,SSW,200,1.0,3.0,48,0.00,,SKC,0.00,VWS V14.00,2013-03-06 00:56:00,
2013-03-05 18:02:00,33.9,16.8,30.30,SSW,200,1.0,3.0,49,0.00,,SKC,0.00,VWS V14.00,2013-03-06 01:02:00,
2013-03-05 18:07:00,33.3,17.1,30.30,SSW,200,0.0,1.0,51,0.00,,SKC,0.00,VWS V14.00,2013-03-06 01:07:00,
2013-03-05 18:12:00,32.7,19.6,30.30,SSW,200,0.0,1.0,58,0.00,,SKC,0.00,VWS V14.00,2013-03-06 01:12:00,
2013-03-05 18:17:00,31.9,18.0,30.31,SSW,200,2.0,2.0,56,0.00,,SKC,0.00,VWS V14.00,2013-03-06 01:17:00,
2013-03-05 18:23:00,31.4,19.1,30.30,SSW,200,0.0,2.0,60,0.00,,SKC,0.00,VWS V14.00,2013-03-06 01:23:00,
2013-03-05 18:28:00,30.7,18.5,30.30,SSW,200,0.0,2.0,60,0.00,,SKC,0.00,VWS V14.00,2013-03-06 01:28:00,
2013-03-05 18:33:00,30.3,17.3,30.30,SSW,200,0.0,0.0,58,0.00,,SKC,0.00,VWS V14.00,2013-03-06 01:33:00,
2013-03-05 18:38:00,30.2,18.0,30.30,SSW,200,2.0,2.0,60,0.00,,SKC,0.00,VWS V14.00,2013-03-06 01:38:00,
2013-03-05 18:44:00,29.8,16.8,30.30,ESE,117,0.0,4.0,58,0.00,,SKC,0.00,VWS V14.00,2013-03-06 01:44:00,
2013-03-05 18:49:00,29.7,17.1,30.30,ESE,117,0.0,4.0,59,0.00,,SKC,0.00,VWS V14.00,2013-03-06 01:49:00,
2013-03-05 18:54:00,29.4,17.2,30.30,ESE,117,0.0,4.0,60,0.00,,SKC,0.00,VWS V14.00,2013-03-06 01:54:00,
2013-03-05 18:59:00,29.2,18.2,30.30,ESE,117,1.0,4.0,63,0.00,,SKC,0.00,VWS V14.00,2013-03-06 01:59:00,
2013-03-05 19:05:00,29.1,18.1,30.30,ESE,117,0.0,0.0,63,0.00,,SKC,0.00,VWS V14.00,2013-03-06 02:05:00,
2013-03-05 19:10:00,28.8,17.8,30.30,ESE,117,4.0,4.0,63,0.00,,SKC,0.00,VWS V14.00,2013-03-06 02:10:00,
2013-03-05 19:15:00,28.6,18.0,30.30,ESE,117,0.0,4.0,64,0.00,,SKC,0.00,VWS V14.00,2013-03-06 02:15:00,
2013-03-05 19:20:00,28.2,18.0,30.30,ESE,117,1.0,4.0,65,0.00,,SKC,0.00,VWS V14.00,2013-03-06 02:20:00,
2013-03-05 19:26:00,28.0,16.7,30.31,ESE,117,0.0,4.0,62,0.00,,SKC,0.00,VWS V14.00,2013-03-06 02:26:00,
2013-03-05 19:31:00,27.8,18.6,30.31,ESE,117,0.0,4.0,68,0.00,,SKC,0.00,VWS V14.00,2013-03-06 02:31:00,
2013-03-05 19:36:00,27.6,17.4,30.31,ESE,117,2.0,2.0,65,0.00,,SKC,0.00,VWS V14.00,2013-03-06 02:36:00,
2013-03-05 19:41:00,27.7,17.1,30.31,ESE,117,0.0,2.0,64,0.00,,SKC,0.00,VWS V14.00,2013-03-06 02:41:00,
2013-03-05 19:46:00,27.6,17.7,30.30,ESE,117,1.0,2.0,66,0.00,,SKC,0.00,VWS V14.00,2013-03-06 02:46:00,
2013-03-05 19:52:00,27.5,17.6,30.31,ESE,117,0.0,2.0,66,0.00,,SKC,0.00,VWS V14.00,2013-03-06 02:52:00,
2013-03-05 19:57:00,27.4,16.8,30.30,ESE,117,0.0,2.0,64,0.00,,SKC,0.00,VWS V14.00,2013-03-06 02:57:00,
2013-03-05 20:02:00,27.4,17.9,30.30,ESE,117,4.0,4.0,67,0.00,,SKC,0.00,VWS V14.00,2013-03-06 03:02:00,
2013-03-05 20:07:00,27.0,17.5,30.31,ESE,116,0.0,4.0,67,0.00,,SKC,0.00,VWS V14.00,2013-03-06 03:07:00,
2013-03-05 20:12:00,26.8,17.7,30.31,ESE,115,0.0,4.0,68,0.00,,SKC,0.00,VWS V14.00,2013-03-06 03:12:00,
2013-03-05 20:18:00,26.6,17.5,30.31,ESE,115,0.0,4.0,68,0.00,,SKC,0.00,VWS V14.00,2013-03-06 03:18:00,
2013-03-05 20:23:00,27.0,17.5,30.31,ENE,78,0.0,4.0,67,0.00,,SKC,0.00,VWS V14.00,2013-03-06 03:23:00,
2013-03-05 20:28:00,27.2,16.3,30.31,ENE,78,0.0,4.0,63,0.00,,SKC,0.00,VWS V14.00,2013-03-06 03:28:00,
2013-03-05 20:33:00,27.2,16.3,30.31,ENE,78,0.0,0.0,63,0.00,,SKC,0.00,VWS V14.00,2013-03-06 03:33:00,
2013-03-05 20:39:00,26.8,17.3,30.31,ENE,78,0.0,1.0,67,0.00,,SKC,0.00,VWS V14.00,2013-03-06 03:39:00,
2013-03-05 20:44:00,26.5,17.0,30.31,ENE,78,0.0,1.0,67,0.00,,SKC,0.00,VWS V14.00,2013-03-06 03:44:00,
2013-03-05 20:49:00,26.2,17.4,30.32,ENE,78,0.0,1.0,69,0.00,,SKC,0.00,VWS V14.00,2013-03-06 03:49:00,
2013-03-05 20:54:00,25.8,17.0,30.32,ENE,78,0.0,2.0,69,0.00,,SKC,0.00,VWS V14.00,2013-03-06 03:54:00,
2013-03-05 20:59:00,25.5,16.8,30.32,ENE,78,1.0,3.0,69,0.00,,SKC,0.00,VWS V14.00,2013-03-06 03:59:00,
2013-03-05 21:05:00,25.4,16.7,30.32,ENE,78,0.0,2.0,69,0.00,,SKC,0.00,VWS V14.00,2013-03-06 04:05:00,
2013-03-05 21:10:00,25.2,17.1,30.32,ENE,78,0.0,2.0,71,0.00,,SKC,0.00,VWS V14.00,2013-03-06 04:10:00,
2013-03-05 21:15:00,25.0,16.3,30.33,ENE,78,0.0,2.0,69,0.00,,SKC,0.00,VWS V14.00,2013-03-06 04:15:00,
2013-03-05 21:20:00,25.1,16.4,30.33,ENE,78,0.0,2.0,69,0.00,,SKC,0.00,VWS V14.00,2013-03-06 04:20:00,
2013-03-05 21:25:00,25.2,16.1,30.32,ENE,78,2.0,2.0,68,0.00,,SKC,0.00,VWS V14.00,2013-03-06 04:25:00,
2013-03-05 21:31:00,25.2,16.8,30.33,ENE,78,0.0,2.0,70,0.00,,SKC,0.00,VWS V14.00,2013-03-06 04:31:00,
2013-03-05 21:36:00,25.1,16.4,30.33,ENE,78,0.0,1.0,69,0.00,,SKC,0.00,VWS V14.00,2013-03-06 04:36:00,
2013-03-05 21:41:00,24.6,16.2,30.33,ENE,78,0.0,2.0,70,0.00,,SKC,0.00,VWS V14.00,2013-03-06 04:41:00,
2013-03-05 21:46:00,24.3,16.6,30.32,ENE,78,1.0,2.0,72,0.00,,SKC,0.00,VWS V14.00,2013-03-06 04:46:00,
2013-03-05 21:51:00,23.9,16.5,30.33,ENE,78,2.0,2.0,73,0.00,,SKC,0.00,VWS V14.00,2013-03-06 04:51:00,
2013-03-05 21:57:00,24.0,16.3,30.33,ENE,78,1.0,4.0,72,0.00,,SKC,0.00,VWS V14.00,2013-03-06 04:57:00,
2013-03-05 22:00:00,24.1,16.1,30.33,ENE,78,0.0,4.0,71,0.00,,SKC,0.00,VWS V14.00,2013-03-06 05:00:00,
2013-03-05 22:01:00,24.1,15.8,30.33,ENE,78,0.0,4.0,70,0.00,,SKC,0.00,VWS V14.00,2013-03-06 05:01:00,
2013-03-05 22:06:00,24.3,16.3,30.33,ENE,78,0.0,2.0,71,0.00,,SKC,0.00,VWS V14.00,2013-03-06 05:06:00,
2013-03-05 22:11:00,24.2,16.5,30.33,ENE,78,0.0,2.0,72,0.00,,SKC,0.00,VWS V14.00,2013-03-06 05:11:00,
2013-03-05 22:17:00,24.0,16.6,30.33,ENE,78,1.0,2.0,73,0.00,,SKC,0.00,VWS V14.00,2013-03-06 05:17:00,
2013-03-05 22:22:00,23.4,16.0,30.33,ENE,78,0.0,3.0,73,0.00,,SKC,0.00,VWS V14.00,2013-03-06 05:22:00,
2013-03-05 22:27:00,23.3,16.2,30.33,ENE,78,0.0,3.0,74,0.00,,SKC,0.00,VWS V14.00,2013-03-06 05:27:00,
2013-03-05 22:32:00,23.2,15.5,30.33,ENE,78,0.0,0.0,72,0.00,,SKC,0.00,VWS V14.00,2013-03-06 05:32:00,
2013-03-05 22:37:00,23.2,15.8,30.32,ENE,78,0.0,0.0,73,0.00,,SKC,0.00,VWS V14.00,2013-03-06 05:37:00,
2013-03-05 22:43:00,22.9,15.6,30.33,ENE,78,0.0,1.0,73,0.00,,SKC,0.00,VWS V14.00,2013-03-06 05:43:00,
2013-03-05 22:48:00,22.7,15.7,30.33,ENE,78,0.0,1.0,74,0.00,,SKC,0.00,VWS V14.00,2013-03-06 05:48:00,
2013-03-05 22:53:00,22.6,15.6,30.32,ENE,78,0.0,1.0,74,0.00,,SKC,0.00,VWS V14.00,2013-03-06 05:53:00,
2013-03-05 22:58:00,22.7,15.4,30.32,ENE,78,0.0,2.0,73,0.00,,SKC,0.00,VWS V14.00,2013-03-06 05:58:00,
2013-03-05 23:04:00,22.7,16.0,30.32,ENE,78,1.0,1.0,75,0.00,,SKC,0.00,VWS V14.00,2013-03-06 06:04:00,
2013-03-05 23:09:00,22.6,15.6,30.32,ENE,78,0.0,1.0,74,0.00,,SKC,0.00,VWS V14.00,2013-03-06 06:09:00,
2013-03-05 23:14:00,22.5,15.8,30.32,ENE,78,0.0,1.0,75,0.00,,SKC,0.00,VWS V14.00,2013-03-06 06:14:00,
2013-03-05 23:19:00,22.4,16.0,30.32,ENE,78,1.0,3.0,76,0.00,,SKC,0.00,VWS V14.00,2013-03-06 06:19:00,
2013-03-05 23:25:00,22.1,15.1,30.32,ENE,78,0.0,3.0,74,0.00,,SKC,0.00,VWS V14.00,2013-03-06 06:25:00,
2013-03-05 23:30:00,22.0,15.3,30.32,ENE,78,0.0,3.0,75,0.00,,SKC,0.00,VWS V14.00,2013-03-06 06:30:00,
2013-03-05 23:35:00,21.9,15.5,30.32,ENE,78,0.0,0.0,76,0.00,,SKC,0.00,VWS V14.00,2013-03-06 06:35:00,
2013-03-05 23:40:00,22.0,15.6,30.32,ENE,78,0.0,2.0,76,0.00,,SKC,0.00,VWS V14.00,2013-03-06 06:40:00,
2013-03-05 23:45:00,21.9,15.2,30.32,ENE,78,0.0,2.0,75,0.00,,SKC,0.00,VWS V14.00,2013-03-06 06:45:00,
2013-03-05 23:51:00,22.0,15.3,30.32,ENE,78,0.0,2.0,75,0.00,,SKC,0.00,VWS V14.00,2013-03-06 06:51:00,
2013-03-05 23:56:00,22.0,15.3,30.32,ENE,78,0.0,2.0,75,0.00,,SKC,0.00,VWS V14.00,2013-03-06 06:56:00,